sat.trackr.live / text

‹ back to catalog

STARLINK-36800

NORAD 67797 · 2026-032A

PAYLOAD ACTIVE UNKNOWN

§ Identity

Operator
Country
US
Launch date
2026-02-15
Launch site
AFWTR
Launch vehicle
Mass (kg)
RCS (m²)

Purposes: comms

External: N2YO · Heavens-Above · Gunter

§ Orbital elements

Epoch: 2026-09-19T22:29:20.541984Z

Period
93.90 min
Inclination
97.2858°
Eccentricity
0.0002385
Mean motion
15.33475164 rev/d
Perigee alt
463.8 km
Apogee alt
467.1 km
Semi-major
6,843.6 km
B*
6.8275e-4
RAAN
89.4224°
Arg perigee
73.1240°
Mean anomaly
287.0264°
Rev number
3,473

§ Raw data

STARLINK-368001 67797U 26032A   26262.93704331  .00022053  00000+0  68275-3 0  99992 67797  97.2858  89.4224 0002385  73.1240 287.0264 15.33475164 34736

JSON: /api/v1/satellites/67797 · /tle

For live sub-satellite position, see the globe view (requires WebGL).

§ Visibility from observer

Set your observer location to see the next 7 days of passes ≥ 10°. The values pass through the URL so the page stays shareable.

No JS? Fill the form by hand. The geolocation button needs JavaScript.